Location: Nebraska Star Party
(42.6000°N, 100.8833°W)
Time: 10:32:06
(UTC-05:00)

Amateur Radio Satellites - All Passes

Search period start: 21 April 2014 10:02
Search period end: 22 April 2014 10:02
Location: Nebraska Star Party, 42.6000°N, 100.8833°W

Satellite Date Start Highest point End Downlink Frequencies (MHz)
Time Altitude Azimuth
PCSat 21 Apr 10:05:19 10:10:43 64° 57° (ENE) 10:16:05 145.825 MHz
Saudisat 1A 21 Apr 10:21:05 10:22:19 11° 107° (ESE) 10:23:34 436.775 MHz
RS-15 21 Apr 10:32:34 10:42:10 32° 331° (NNW) 10:51:40 29.354 - 29.394 USB, Beacon 29.352 USB
HO-68 21 Apr 10:52:25 10:59:34 64° 103° (ESE) 11:06:40 435.675 MHz FM
Oscar 11 21 Apr 10:52:43 10:56:26 27° 95° (E) 11:00:07 145.825 FM, Beacon 2401.500 USB
JAS-2 21 Apr 10:56:46 10:58:47 12° 302° (WNW) 11:00:52 435.800 - 435.900 CW/SSB, 435.910 FM
Sapphire 21 Apr 11:04:05 11:09:16 47° 247° (WSW) 11:14:25 437.095 MHz 1200 baud AX-25 AFSK
KITSAT 1 21 Apr 11:24:49 11:32:19 39° 45° (NE) 11:39:43 435.175 FM
PCSat 21 Apr 11:49:56 11:53:36 19° 255° (WSW) 11:57:16 145.825 MHz
Saudisat 1A 21 Apr 11:56:47 12:01:16 82° 304° (NW) 12:05:45 436.775 MHz
FUNcube-1 21 Apr 12:24:25 12:28:43 86° 103° (ESE) 12:33:05 145.950 - 145.970 MHz USB
Oscar 11 21 Apr 12:28:50 12:32:35 29° 292° (WNW) 12:36:19 145.825 FM, Beacon 2401.500 USB
Oscar 10/S400 21 Apr 12:35:18 14:12:51 41° 248° (WSW) 19:02:11 145.825 - 145.975 CW/USB, Beacon 145.810 USB
HO-68 21 Apr 12:40:56 12:46:45 28° 302° (WNW) 12:52:34 435.675 MHz FM
RS-15 21 Apr 12:51:07 12:59:15 23° 6° (N) 13:07:23 29.354 - 29.394 USB, Beacon 29.352 USB
KITSAT 1 21 Apr 13:20:10 13:28:03 58° 246° (WSW) 13:35:52 435.175 FM
AO-Echo 21 Apr 13:38:48 13:41:14 14° 60° (ENE) 13:43:38 ?
Saudisat 1A 21 Apr 13:39:09 13:41:35 14° 324° (NW) 13:44:01 436.775 MHz
AO-27 21 Apr 13:42:10 13:45:41 19° 61° (ENE) 13:49:13 436.795 MHz FM
Oscar 19 21 Apr 13:50:45 13:55:29 38° 68° (ENE) 14:00:14 437.125 CW, 437.150 USB
ITAMSAT 1 21 Apr 13:51:49 13:55:44 22° 63° (ENE) 13:59:39 435.822 SSB
Oscar 16 21 Apr 13:59:11 14:04:06 49° 70° (ENE) 14:09:04 437.025 USB, Beacon 2401.1428
TMSAT-1 21 Apr 14:34:45 14:37:07 13° 58° (ENE) 14:39:29 436.925 FM
Uribyol 2 21 Apr 14:38:15 14:43:19 60° 72° (ENE) 14:48:24 436.500 FM
ISS 21 Apr 14:45:36 14:47:55 18° 133° (SE) 14:50:14 145.800 FM
JAS-1B 21 Apr 15:01:40 15:06:27 19° 59° (ENE) 15:10:48 435.800 - 435.900 CW/SSB
SO-50 21 Apr 15:03:59 15:06:53 17° 110° (ESE) 15:09:48 436.795 FM
RS-15 21 Apr 15:05:20 15:15:35 43° 39° (NE) 15:25:58 29.354 - 29.394 USB, Beacon 29.352 USB
AO-Echo 21 Apr 15:14:06 15:19:20 85° 257° (WSW) 15:24:27 ?
AO-27 21 Apr 15:19:36 15:24:44 60° 259° (WSW) 15:29:53 436.795 MHz FM
Gurwin Techsat 1B 21 Apr 15:24:28 15:29:32 48° 70° (ENE) 15:34:38 435.225 FM
ITAMSAT 1 21 Apr 15:29:53 15:34:53 49° 260° (W) 15:39:55 435.822 SSB
Oscar 19 21 Apr 15:30:35 15:34:54 27° 265° (W) 15:39:16 437.125 CW, 437.150 USB
Uosat F 21 Apr 15:36:47 15:40:02 18° 61° (ENE) 15:43:17 435.120 FM
Oscar 16 21 Apr 15:39:54 15:43:43 21° 267° (W) 15:47:35 437.025 USB, Beacon 2401.1428
AO-7 21 Apr 15:47:25 15:54:14 30° 55° (NE) 16:01:04 29.400 - 29.500 MHz
TMSAT-1 21 Apr 16:10:58 16:16:16 89° 76° (ENE) 16:21:36 436.925 FM
Uribyol 2 21 Apr 16:19:52 16:23:11 17° 269° (W) 16:26:31 436.500 FM
ISS 21 Apr 16:21:02 16:24:21 61° 330° (NNW) 16:27:40 145.800 FM
OPAL 21 Apr 16:33:16 16:38:29 68° 104° (ESE) 16:43:40 ?
SO-50 21 Apr 16:42:37 16:47:00 55° 308° (NW) 16:51:28 436.795 FM
JAS-1B 21 Apr 16:48:30 16:56:31 86° 255° (WSW) 17:03:12 435.800 - 435.900 CW/SSB
Gurwin Techsat 1B 21 Apr 17:05:41 17:09:45 22° 267° (W) 17:13:51 435.225 FM
Uosat F 21 Apr 17:13:22 17:18:20 62° 258° (WSW) 17:23:20 435.120 FM
UOSAT-12 21 Apr 17:13:47 17:17:04 20° 111° (ESE) 17:20:24 437.025 FM, 437.400 FM
RS-15 21 Apr 17:17:49 17:28:35 67° 244° (WSW) 17:39:40 29.354 - 29.394 USB, Beacon 29.352 USB
AO-7 21 Apr 17:38:11 17:46:24 69° 255° (WSW) 17:54:41 29.400 - 29.500 MHz
TMSAT-1 21 Apr 17:55:23 17:56:54 11° 273° (W) 17:58:25 436.925 FM
ISS 21 Apr 17:59:01 18:01:35 20° 349° (NNW) 18:04:09 145.800 FM
OPAL 21 Apr 18:13:25 18:16:49 18° 302° (WNW) 18:20:13 ?
SO-50 21 Apr 18:27:22 18:28:37 11° 329° (NNW) 18:29:51 436.795 FM
Hamsat 21 Apr 18:29:10 18:32:53 31° 70° (ENE) 18:36:39 145.90 MHz
JAS-1B 21 Apr 18:43:37 18:47:41 15° 269° (W) 18:51:28 435.800 - 435.900 CW/SSB
Saudisat 1A 21 Apr 18:44:40 18:47:22 16° 38° (NE) 18:50:03 436.775 MHz
UOSAT-12 21 Apr 18:52:24 18:56:51 51° 309° (NW) 19:01:24 437.025 FM, 437.400 FM
STRAND 1 21 Apr 19:16:37 19:19:36 15° 91° (E) 19:22:34 ?
JAS-2 21 Apr 19:22:31 19:27:51 43° 70° (ENE) 19:32:49 435.800 - 435.900 CW/SSB, 435.910 FM
RS-15 21 Apr 19:34:08 19:38:42 14° 264° (W) 19:43:20 29.354 - 29.394 USB, Beacon 29.352 USB
ISS 21 Apr 19:36:42 19:39:12 19° 9° (N) 19:41:41 145.800 FM
AO-7 21 Apr 19:37:45 19:40:40 12° 274° (W) 19:43:35 29.400 - 29.500 MHz
HO-68 21 Apr 19:40:59 19:42:15 11° 46° (NE) 19:43:32 435.675 MHz FM
SO-67 21 Apr 19:53:15 19:56:36 46° 74° (ENE) 19:59:58 435.3500 MHz FM
Hamsat 21 Apr 20:05:34 20:08:54 23° 266° (W) 20:12:18 145.90 MHz
Saudisat 1A 21 Apr 20:23:08 20:27:35 85° 237° (WSW) 20:31:57 436.775 MHz
UOSAT-12 21 Apr 20:36:54 20:38:07 11° 330° (NNW) 20:39:21 437.025 FM, 437.400 FM
STRAND 1 21 Apr 20:54:11 20:59:14 65° 287° (WNW) 21:04:16 ?
JAS-2 21 Apr 21:08:31 21:13:07 25° 265° (W) 21:17:27 435.800 - 435.900 CW/SSB, 435.910 FM
ISS 21 Apr 21:13:13 21:16:30 50° 29° (NNE) 21:19:47 145.800 FM
HO-68 21 Apr 21:21:30 21:28:19 51° 66° (ENE) 21:35:11 435.675 MHz FM
MaSat-1 21 Apr 21:22:34 21:24:20 15° 110° (ESE) 21:26:01 437.345 MHz
SO-67 21 Apr 21:29:25 21:30:01 10° 270° (W) 21:30:37 435.3500 MHz FM
Oscar 11 21 Apr 21:48:52 21:52:19 24° 67° (ENE) 21:55:46 145.825 FM, Beacon 2401.500 USB
ISS 21 Apr 22:50:22 22:53:02 22° 226° (SW) 22:55:41 145.800 FM
MaSat-1 21 Apr 23:00:45 23:02:37 16° 303° (WNW) 23:04:22 437.345 MHz
HO-68 21 Apr 23:10:02 23:16:15 32° 264° (W) 23:22:31 435.675 MHz FM
FUNcube-1 21 Apr 23:21:47 23:25:57 75° 75° (ENE) 23:30:07 145.950 - 145.970 MHz USB
Oscar 11 21 Apr 23:24:30 23:28:21 32° 263° (W) 23:32:15 145.825 FM, Beacon 2401.500 USB
SO-50 21 Apr 23:33:31 23:37:16 24° 43° (NE) 23:41:04 436.795 FM
Sapphire 22 Apr 00:04:48 00:08:38 20° 106° (ESE) 00:12:29 437.095 MHz 1200 baud AX-25 AFSK
PCSat 22 Apr 00:47:44 00:52:56 50° 114° (ESE) 00:58:10 145.825 MHz
SO-50 22 Apr 01:13:36 01:18:06 51° 241° (WSW) 01:22:40 436.795 FM
UOSAT-12 22 Apr 01:41:37 01:45:33 25° 43° (NE) 01:49:28 437.025 FM, 437.400 FM
Sapphire 22 Apr 01:46:14 01:51:35 60° 304° (WNW) 01:56:57 437.095 MHz 1200 baud AX-25 AFSK
KITSAT 1 22 Apr 01:56:33 02:01:57 20° 102° (ESE) 02:07:21 435.175 FM
Oscar 19 22 Apr 02:03:29 02:05:39 13° 89° (E) 02:07:48 437.125 CW, 437.150 USB
Oscar 16 22 Apr 02:11:22 02:14:36 16° 91° (E) 02:17:49 437.025 USB, Beacon 2401.1428
OPAL 22 Apr 02:12:24 02:15:46 18° 59° (ENE) 02:19:09 ?
PCSat 22 Apr 02:32:02 02:36:36 27° 313° (NW) 02:41:13 145.825 MHz
Uribyol 2 22 Apr 02:51:09 02:54:55 20° 93° (E) 02:58:40 436.500 FM
UOSAT-12 22 Apr 03:21:23 03:25:56 48° 242° (WSW) 03:30:26 437.025 FM, 437.400 FM
AO-Echo 22 Apr 03:21:25 03:25:29 27° 95° (E) 03:29:29 ?
AO-27 22 Apr 03:31:58 03:36:57 46° 99° (E) 03:41:54 436.795 MHz FM
Sapphire 22 Apr 03:33:45 03:36:11 13° 325° (NW) 03:38:36 437.095 MHz 1200 baud AX-25 AFSK
Oscar 19 22 Apr 03:40:23 03:45:36 81° 286° (WNW) 03:50:48 437.125 CW, 437.150 USB
Gurwin Techsat 1B 22 Apr 03:40:56 03:44:32 18° 91° (E) 03:48:06 435.225 FM
ITAMSAT 1 22 Apr 03:41:52 03:46:57 56° 101° (E) 03:52:02 435.822 SSB
KITSAT 1 22 Apr 03:48:09 03:56:17 88° 301° (WNW) 04:04:28 435.175 FM
OPAL 22 Apr 03:49:08 03:54:07 63° 256° (WSW) 03:59:13 ?
Oscar 16 22 Apr 03:49:14 03:54:23 63° 287° (WNW) 03:59:30 437.025 USB, Beacon 2401.1428
TMSAT-1 22 Apr 04:26:27 04:31:15 34° 96° (E) 04:36:00 436.925 FM
Uribyol 2 22 Apr 04:29:40 04:34:41 52° 289° (WNW) 04:39:42 436.500 FM
JAS-1B 22 Apr 04:33:33 04:37:38 20° 93° (E) 04:41:51 435.800 - 435.900 CW/SSB
AO-Echo 22 Apr 05:00:04 05:04:17 32° 292° (WNW) 05:08:24 ?
AO-27 22 Apr 05:12:07 05:16:10 24° 296° (WNW) 05:20:13 436.795 MHz FM
Gurwin Techsat 1B 22 Apr 05:19:40 05:24:53 59° 288° (WNW) 05:30:05 435.225 FM
Uosat F 22 Apr 05:20:32 05:25:11 38° 98° (E) 05:29:49 435.120 FM
ITAMSAT 1 22 Apr 05:22:21 05:26:02 20° 298° (WNW) 05:29:43 435.822 SSB
Oscar 19 22 Apr 05:22:25 05:24:06 12° 303° (WNW) 05:25:46 437.125 CW, 437.150 USB
RS-15 22 Apr 05:34:52 05:41:35 18° 99° (E) 05:48:09 29.354 - 29.394 USB, Beacon 29.352 USB
AO-7 22 Apr 05:39:03 05:46:46 40° 99° (E) 05:54:27 29.400 - 29.500 MHz
KITSAT 1 22 Apr 05:46:12 05:52:50 27° 324° (NW) 05:59:29 435.175 FM
TMSAT-1 22 Apr 06:06:27 06:11:06 32° 293° (WNW) 06:15:44 436.925 FM
JAS-1B 22 Apr 06:23:13 06:28:43 54° 290° (WNW) 06:34:29 435.800 - 435.900 CW/SSB
STRAND 1 22 Apr 06:32:56 06:37:04 26° 65° (ENE) 06:41:13 ?
Uosat F 22 Apr 06:59:40 07:03:48 27° 295° (WNW) 07:07:55 435.120 FM
MaSat-1 22 Apr 07:21:24 07:24:25 81° 64° (ENE) 07:28:01 437.345 MHz
AO-7 22 Apr 07:31:47 07:39:38 49° 297° (WNW) 07:47:31 29.400 - 29.500 MHz
RS-15 22 Apr 07:40:46 07:52:04 78° 119° (ESE) 08:03:02 29.354 - 29.394 USB, Beacon 29.352 USB
KITSAT 1 22 Apr 07:48:15 07:51:42 13° 353° (N) 07:55:09 435.175 FM
Hamsat 22 Apr 07:49:35 07:53:54 59° 100° (E) 07:58:13 145.90 MHz
PCSat 22 Apr 07:53:57 07:55:20 11° 32° (NNE) 07:56:42 145.825 MHz
STRAND 1 22 Apr 08:11:14 08:16:03 41° 262° (W) 08:20:53 ?
JAS-2 22 Apr 08:14:13 08:19:15 35° 98° (E) 08:24:45 435.800 - 435.900 CW/SSB, 435.910 FM
SO-67 22 Apr 08:50:01 08:53:28 52° 100° (E) 08:56:52 435.3500 MHz FM
Sapphire 22 Apr 08:50:47 08:55:02 23° 44° (NE) 08:59:16 437.095 MHz 1200 baud AX-25 AFSK
Hamsat 22 Apr 09:27:05 09:29:24 14° 297° (WNW) 09:31:44 145.90 MHz
AO-7 22 Apr 09:27:47 09:30:26 12° 319° (NW) 09:33:04 29.400 - 29.500 MHz
PCSat 22 Apr 09:34:53 09:40:09 48° 54° (NE) 09:45:22 145.825 MHz
KITSAT 1 22 Apr 09:45:54 09:51:10 18° 24° (NNE) 09:56:24 435.175 FM
